User: anonymous
Location: Cutler
(25.6150°N, 80.3110°W)
Time: 04:46:26
(UTC-04:00)
Language:

Cosmos 2360 Rocket - Orbit

View from above orbital plane
View from above orbital plane
View from above satellite
View from above satellite

Ground track
Ground track

The orbit data is extracted from the following two-line orbital elements,

1 25407U 98045B   14231.11509660 -.00000315  00000-0 -13643-3 0  5361
2 25407 071.0120 052.2500 0009165 328.2663 170.6375 14.15669026829970
Epoch (UTC): 19 August 2014 02:45:44
Eccentricity: 0.0009165
inclination: 71.0120°
perigee height: 833 km
apogee height: 846 km
right ascension of ascending node: 52.2500°
argument of perigee: 328.2663°
revolutions per day: 14.15669026
mean anomaly at epoch: 170.6375°
orbit number at epoch: 82997

The dashed part of the orbit path shows where the satellite is in the earth's shadow,  

DLR